Regional Weather Roundup
Issued by NWS

Home | Current Version | Previous Version | Graphics & Text | Print | Product List | Glossary On
Versions: 1 2 3 4 5 6 7 8 9 10 11 12 13 14 15 16 17 18 19 20 21 22 23 24 25 26 27 28 29 30 31 32 33 34 35 36 37 38 39 40 41 42 43 44 45 46 47 48 49 50
331
ASUS43 KLMK 251710
RWRKY
KENTUCKY REGIONAL WEATHER ROUNDUP
NATIONAL WEATHER SERVICE LOUISVILLE KY
100 PM EDT TUE JUL 25 2017

NOTE "FAIR" INDICATES FEW OR NO CLOUDS BELOW 12,000 FEET
WITH NO SIGNIFICANT WEATHER AND/OR OBSTRUCTIONS TO VISIBILITY.

KYZ001>023-026-027-061>063-070>075-251800-
WESTERN AND SOUTH CENTRAL KENTUCKY

CITY           SKY/WX    TMP DP  RH WIND       PRES   REMARKS
PADUCAH        MOSUNNY   91  76  61 VRB5      30.07S HX 103
HENDERSON      PTSUNNY   83  74  74 NE7       30.11
OWENSBORO      SUNNY     84  71  65 NE8       30.12S
HOPKINSVILLE   PTSUNNY   87  74  65 CALM      30.09S HX  95
BOWLING GREEN  MOSUNNY   88  75  65 E8        30.12S HX  97
GLASGOW        MOSUNNY   87  72  60 NE5       30.13S HX  93
$$

KYZ024-025-028>034-038-045-046-053-251800-
NORTH CENTRAL KENTUCKY

CITY           SKY/WX    TMP DP  RH WIND       PRES   REMARKS
LOUISVILLE/SDF MOSUNNY   83  66  56 VRB3      30.14F
LOUISVILLE/LOU MOSUNNY   83  67  58 E8        30.15S
FORT KNOX      SUNNY     80  68  65 E6        30.13F
$$

KYZ035>037-039>044-047>052-055>060-089>105-251800-
NORTHEAST KENTUCKY

CITY           SKY/WX    TMP DP  RH WIND       PRES   REMARKS
LEXINGTON      SUNNY     81  63  54 NE9       30.17F
COVINGTON      MOSUNNY   77  57  50 E10       30.19S
FRANKFORT      SUNNY     80  62  54 VRB7      30.16F
$$

KYZ054-064>069-076>088-106>120-251800-
SOUTHEAST KENTUCKY

CITY           SKY/WX    TMP DP  RH WIND       PRES   REMARKS
JACKSON        MOSUNNY   79  67  66 VRB3      30.18S
LONDON         MOSUNNY   81  69  67 N8        30.16S
SOMERSET       MOSUNNY   81  70  69 N6        30.16S
MIDDLESBORO    PTSUNNY   85  73  67 NE9       30.14S HX  91
MONTICELLO     SUNNY     83  75  77 N14       30.16S HX  90
$$





USA.gov is the U.S. government's official web portal to all federal, state and local government web resources and services.